Location: Multiple Mirror Telescope
(31.6889°N, 110.8853°W)
Time: 04:38:41
(UTC-07:00)

ISS - Pass Details

Date: 19 April 2026
Orbit: 414 x 424 km, 51.6° (Epoch: 18 May)

Event Time Altitude Azimuth Distance (km) Brightness Sun altitude
Exits shadow 04:57:09 13° 288° (WNW) 1,330 -1.7 -11.6°
Maximum altitude 04:58:56 18° 325° (NW) 1,104 -1.8 -11.3°
Drops below altitude 10° 05:01:20 10° 10° (N) 1,501 -0.5 -10.8°
Sets 05:03:55 0° 31° (NNE) 2,371 0.9 -10.3°
